ZL1UTH Weather Reports


time (UTC)temp
F
wind
direction
speed
knots
gust
knots
rain 1hr
in
rain 24hr
in
rain mn
in
humidity
%
barometer
mb
20260510033904 62 198 4.3 9.6 0.00 0.08 0.01 73 1011.1
20260510033603 62 207 1.7 7.0 0.00 0.08 0.01 72 1011.2
20260510033304 62 220 3.5 7.0 0.00 0.08 0.01 72 1011.2
20260510033004 62 215 3.5 7.0 0.00 0.08 0.01 73 1011.1
20260510032103 63 203 4.3 10.4 0.00 0.08 0.01 71 1010.9
20260510031804 63 201 3.5 10.4 0.00 0.08 0.01 71 1011.1
20260510031504 63 198 6.1 10.4 0.00 0.08 0.01 70 1010.9
20260510031204 64 191 5.2 10.4 0.00 0.08 0.01 70 1011.2
20260510030904 64 178 6.1 11.3 0.00 0.08 0.01 70 1011.1
20260510030303 66 191 7.0 11.3 0.00 0.08 0.01 65 1011.1
20260510030004 67 198 5.2 11.3 0.00 0.08 0.01 64 1011.1
20260510025704 66 210 4.3 10.4 0.00 0.08 0.01 66 1011.0
20260510025403 65 205 4.3 10.4 0.00 0.08 0.01 65 1010.9
20260510025103 66 212 7.0 11.3 0.00 0.08 0.01 63 1011.0
20260510024803 67 198 5.2 11.3 0.00 0.08 0.01 62 1011.1
20260510024504 68 188 4.3 11.3 0.00 0.08 0.01 61 1010.9
20260510024204 68 175 6.1 11.3 0.00 0.08 0.01 60 1010.8
20260510023906 68 191 6.1 9.6 0.00 0.08 0.01 62 1010.7
20260510023604 67 227 3.5 9.6 0.00 0.08 0.01 61 1010.7
20260510023303 67 238 6.1 9.6 0.00 0.08 0.01 62 1010.8
20260510023005 67 230 6.1 9.6 0.00 0.08 0.01 63 1010.8
20260510022703 67 213 7.0 9.6 0.00 0.09 0.01 63 1010.9
20260510022404 66 199 5.2 9.6 0.00 0.13 0.01 63 1010.8
20260510020004 64 193 3.5 9.6 0.00 0.25 0.01 68 1010.9
20260510015703 64 206 7.0 9.6 0.00 0.25 0.01 67 1011.0
20260510015104 65 215 3.5 9.6 0.00 0.25 0.01 66 1010.7
20260510014805 65 209 2.6 7.0 0.00 0.25 0.01 65 1010.9
20260510014504 65 212 5.2 7.0 0.00 0.25 0.01 67 1010.8
20260510014203 65 199 1.7 10.4 0.00 0.25 0.01 66 1010.8
20260510013903 65 206 3.5 10.4 0.00 0.25 0.01 65 1011.0
20260510013603 65 205 3.5 10.4 0.00 0.25 0.01 64 1010.7
20260510013303 66 245 3.5 9.6 0.00 0.25 0.01 65 1011.0
20260510012704 67 269 5.2 9.6 0.00 0.25 0.01 62 1010.9
20260510012404 67 251 2.6 9.6 0.00 0.25 0.01 62 1010.6
20260510012104 67 265 5.2 13.0 0.00 0.25 0.01 63 1010.8
20260510011503 67 274 4.3 13.0 0.00 0.25 0.01 61 1010.7
20260510011204 68 252 3.5 9.6 0.00 0.25 0.01 62 1010.8
20260510010903 67 218 3.5 9.6 0.00 0.26 0.01 61 1010.9
20260510010605 68 209 5.2 9.6 0.00 0.26 0.01 62 1011.0
20260510010004 66 209 3.5 7.0 0.00 0.28 0.01 65 1011.0
20260510005703 65 216 1.7 7.0 0.00 0.28 0.01 66 1010.9
20260510005404 65 206 2.6 7.0 0.00 0.34 0.01 65 1010.9
20260510005105 65 203 0.0 5.2 0.00 0.34 0.01 64 1011.1
20260510004804 66 195 2.6 5.2 0.00 0.34 0.01 64 1011.2
20260510004504 67 193 0.9 4.3 0.00 0.34 0.01 66 1011.0
20260510004204 67 205 0.9 3.5 0.00 0.34 0.01 69 1011.2
20260510003904 66 234 0.0 3.5 0.00 0.34 0.01 71 1011.4
20260510003604 65 283 0.9 3.5 0.00 0.34 0.01 69 1011.3
20260510003304 65 315 2.6 3.5 0.00 0.34 0.01 69 1011.3
20260510003004 65 317 0.9 2.6 0.00 0.34 0.01 69 1011.4
20260510002703 65 318 0.0 2.6 0.00 0.34 0.01 71 1011.3
20260510002404 65 269 0.9 2.6 0.00 0.34 0.01 71 1011.3
20260510002105 65 246 0.0 2.6 0.00 0.34 0.01 72 1011.4
20260510001803 65 220 0.0 2.6 0.00 0.34 0.01 73 1011.4
20260510001505 64 201 0.9 2.6 0.00 0.34 0.01 74 1011.5
20260510001203 63 187 0.9 2.6 0.00 0.34 0.01 75 1011.5
20260510000904 62 179 1.7 2.6 0.00 0.34 0.01 77 1011.6
20260510000603 61 172 1.7 2.6 0.00 0.34 0.01 76 1011.5
20260510000304 61 178 1.7 2.6 0.00 0.34 0.01 76 1011.7
20260509235704 61 171 0.9 4.3 0.00 0.34 0.01 76 1011.8
20260509235103 61 153 0.9 4.3 0.00 0.34 0.01 75 1011.8
20260509234803 61 150 2.6 4.3 0.00 0.34 0.01 74 1012.1
20260509234504 62 148 1.7 5.2 0.00 0.34 0.01 74 1012.0
20260509234203 62 147 2.6 5.2 0.00 0.34 0.01 74 1012.0
20260509233904 62 152 0.9 5.2 0.00 0.34 0.01 74 1012.0
20260509233604 62 151 3.5 5.2 0.00 0.34 0.01 74 1012.1
20260509233304 62 150 1.7 6.1 0.00 0.34 0.01 74 1012.2
20260509232704 61 153 1.7 7.0 0.00 0.34 0.01 73 1012.2
20260509232403 62 149 3.5 7.0 0.00 0.34 0.01 71 1012.1
20260509232104 62 151 3.5 7.0 0.00 0.34 0.01 69 1012.2
20260509231504 65 191 3.5 5.2 0.00 0.34 0.01 67 1012.2
20260509230904 66 246 1.7 3.5 0.00 0.34 0.01 72 1012.2
20260509230606 65 300 0.0 3.5 0.00 0.34 0.01 73 1012.2
20260509230004 62 239 0.0 3.5 0.00 0.34 0.01 76 1012.3
20260509225704 61 167 0.0 4.3 0.00 0.34 0.01 77 1012.4
20260509225404 61 170 0.9 4.3 0.00 0.34 0.01 77 1012.4
20260509225104 60 159 2.6 5.2 0.00 0.34 0.01 77 1012.5
20260509224804 60 156 2.6 5.2 0.00 0.34 0.01 79 1012.5
20260509224504 60 151 1.7 5.2 0.00 0.34 0.01 79 1012.7
20260509224204 61 155 2.6 5.2 0.00 0.34 0.01 82 1012.6
20260509223903 61 194 1.7 3.5 0.00 0.34 0.01 83 1012.7
20260509223303 60 189 0.9 3.5 0.00 0.34 0.01 87 1012.6
20260509223004 61 198 0.0 3.5 0.00 0.34 0.01 88 1012.7
20260509222704 61 188 0.9 3.5 0.00 0.34 0.01 90 1012.6
20260509222404 61 189 0.9 3.5 0.00 0.34 0.01 91 1012.5
20260509221503 61 248 0.0 1.7 0.00 0.34 0.01 94 1012.6
20260509221204 62 248 0.0 0.9 0.00 0.34 0.01 96 1012.5
20260509220904 62 248 0.0 0.9 0.00 0.34 0.01 97 1012.4
20260509220603 62 248 0.0 0.9 0.00 0.34 0.01 97 1012.6
20260509220303 61 0 0.0 0.0 0.00 0.34 0.01 98 1012.6
20260509220004 61 0 0.0 0.0 0.00 0.34 0.01 98 1012.5
20260509215703 60 0 0.0 0.0 0.00 0.34 0.01 99 1012.6
20260509215403 59 0 0.0 0.0 0.00 0.34 0.01 99 1012.6
20260509215104 58 0 0.0 0.0 0.00 0.34 0.01 99 1012.5
20260509214504 55 292 0.0 1.7 0.00 0.34 0.01 97 1012.6
20260509214206 55 292 0.0 1.7 0.00 0.34 0.01 97 1012.6
20260509213904 55 292 0.0 1.7 0.00 0.34 0.01 97 1012.6
20260509213604 55 45 0.0 0.9 0.00 0.34 0.01 97 1012.8
20260509213304 55 45 0.0 0.9 0.00 0.34 0.01 97 1012.7
20260509212704 55 0 0.0 0.0 0.00 0.34 0.01 97 1012.7
20260509212403 55 292 0.0 0.9 0.00 0.34 0.01 97 1012.7
20260509212106 55 348 0.0 0.9 0.00 0.34 0.01 97 1012.6
20260509211803 55 348 0.0 0.9 0.00 0.34 0.01 97 1012.6
20260509211504 55 348 0.0 0.9 0.00 0.34 0.01 97 1012.6
20260509211204 55 45 0.0 0.9 0.00 0.34 0.01 97 1012.6
20260509210903 54 1 0.0 0.9 0.00 0.34 0.01 97 1012.6
20260509210604 54 1 0.0 0.9 0.00 0.34 0.01 97 1012.6
20260509210304 54 1 0.0 0.9 0.00 0.34 0.01 97 1012.5
20260509210004 54 0 0.0 0.0 0.00 0.34 0.01 97 1012.7
20260509205706 53 0 0.0 0.0 0.00 0.34 0.01 98 1012.6
20260509205404 52 0 0.0 0.0 0.00 0.34 0.01 98 1012.6
20260509205103 52 0 0.0 0.0 0.00 0.34 0.01 99 1012.7
20260509204804 51 0 0.0 0.0 0.00 0.34 0.01 99 1012.7
20260509204504 51 0 0.0 0.0 0.00 0.34 0.01 99 1012.6
20260509204204 51 0 0.0 0.0 0.00 0.34 0.01 99 1012.8
20260509203606 51 248 0.0 0.9 0.00 0.34 0.01 99 1012.5
20260509203303 51 248 0.0 0.9 0.00 0.34 0.01 99 1012.7
20260509202705 51 0 0.0 0.0 0.00 0.34 0.01 99 1012.5
20260509202403 51 0 0.0 0.0 0.00 0.34 0.01 99 1012.5
20260509202104 51 0 0.0 0.0 0.00 0.34 0.01 99 1012.5
20260509201503 50 0 0.0 0.0 0.00 0.34 0.01 99 1012.2
20260509201204 50 0 0.0 0.0 0.00 0.34 0.01 99 1012.2
20260509200904 50 0 0.0 0.0 0.00 0.34 0.01 99 1012.2
20260509200604 50 248 0.0 0.9 0.00 0.34 0.01 99 1012.2
20260509200304 50 248 0.0 1.7 0.00 0.34 0.01 99 1012.1
20260509200004 50 236 0.0 1.7 0.00 0.34 0.01 99 1012.1
20260509195704 50 244 0.0 1.7 0.00 0.34 0.01 99 1012.2
20260509195404 50 244 0.0 1.7 0.00 0.34 0.01 99 1012.1
20260509195103 50 244 0.0 1.7 0.00 0.34 0.01 99 1012.0
20260509194804 50 243 0.9 1.7 0.00 0.34 0.01 99 1012.4
20260509194504 50 239 0.0 1.7 0.00 0.34 0.01 99 1012.1
20260509194203 50 206 0.0 1.7 0.00 0.34 0.01 99 1012.0
20260509193603 49 143 0.0 1.7 0.00 0.34 0.01 99 1012.1
20260509193305 49 148 0.0 1.7 0.00 0.34 0.01 99 1011.9
20260509193006 49 191 0.0 1.7 0.00 0.34 0.01 99 1012.0
20260509192705 50 248 0.0 1.7 0.00 0.34 0.01 99 1011.9
20260509191804 50 274 0.0 2.6 0.00 0.34 0.01 99 1012.0
20260509191203 50 135 0.0 0.9 0.00 0.34 0.01 99 1011.9
20260509190904 50 135 0.0 0.9 0.00 0.34 0.01 99 1012.0
20260509190605 50 0 0.0 0.0 0.00 0.34 0.01 99 1011.8
20260509190304 50 0 0.0 0.0 0.00 0.34 0.01 99 1011.9
20260509190004 50 0 0.0 0.0 0.00 0.34 0.01 99 1012.1
20260509185704 50 0 0.0 0.0 0.00 0.34 0.01 99 1011.8
20260509185403 50 0 0.0 0.0 0.00 0.34 0.01 99 1011.9
20260509185106 50 0 0.0 0.0 0.00 0.34 0.01 99 1011.8
20260509184803 50 0 0.0 0.0 0.00 0.34 0.01 99 1011.9
20260509184505 50 0 0.0 0.0 0.00 0.34 0.01 99 1011.9
20260509184204 50 0 0.0 0.0 0.00 0.34 0.01 99 1011.9
20260509183903 50 0 0.0 0.0 0.00 0.34 0.01 99 1011.9
20260509183604 50 0 0.0 0.0 0.00 0.34 0.01 99 1011.9
20260509183303 50 0 0.0 0.0 0.00 0.34 0.01 99 1011.8
20260509183005 50 0 0.0 0.0 0.00 0.34 0.01 99 1011.6
20260509182704 50 0 0.0 0.0 0.00 0.34 0.01 99 1011.8
20260509182404 50 0 0.0 0.0 0.00 0.34 0.01 99 1011.9
20260509181806 50 0 0.0 0.0 0.00 0.34 0.01 99 1011.7
20260509181204 50 0 0.0 0.0 0.00 0.34 0.01 99 1011.8
20260509180904 50 0 0.0 0.0 0.00 0.34 0.01 99 1011.8
20260509180304 50 0 0.0 0.0 0.00 0.34 0.01 99 1011.9
20260509180005 49 0 0.0 0.0 0.00 0.34 0.01 99 1011.8
20260509175703 49 0 0.0 0.0 0.00 0.34 0.01 99 1011.8
20260509175404 49 0 0.0 0.0 0.00 0.34 0.01 99 1011.8
20260509175104 49 0 0.0 0.0 0.00 0.34 0.01 99 1011.8
20260509174804 49 0 0.0 0.0 0.00 0.34 0.01 99 1011.6
20260509174504 49 0 0.0 0.0 0.00 0.34 0.01 99 1011.8
20260509174204 49 0 0.0 0.0 0.00 0.34 0.01 99 1011.7
20260509173903 49 0 0.0 0.0 0.00 0.34 0.01 99 1011.7
20260509173604 49 0 0.0 0.0 0.00 0.34 0.01 99 1011.9
20260509173303 49 0 0.0 0.0 0.00 0.34 0.01 99 1011.9
20260509173004 49 0 0.0 0.0 0.00 0.34 0.01 99 1011.7
20260509172704 49 0 0.0 0.0 0.00 0.34 0.01 99 1011.7
20260509172403 49 0 0.0 0.0 0.00 0.34 0.01 99 1011.6
20260509172104 49 0 0.0 0.0 0.00 0.34 0.01 99 1011.6
20260509171803 49 0 0.0 0.0 0.00 0.34 0.01 99 1011.7
20260509171504 49 0 0.0 0.0 0.00 0.34 0.01 99 1011.5
20260509171203 49 0 0.0 0.0 0.00 0.34 0.01 99 1011.6
20260509170907 49 0 0.0 0.0 0.00 0.34 0.01 99 1011.9
20260509170603 49 0 0.0 0.0 0.00 0.34 0.01 99 1011.8
20260509170304 49 348 0.0 1.7 0.01 0.34 0.01 99 1011.7
20260509170006 49 26 0.0 2.6 0.01 0.34 0.01 99 1011.8
20260509165704 49 26 0.0 2.6 0.01 0.34 0.01 99 1011.8
20260509165404 49 26 0.0 2.6 0.01 0.34 0.01 99 1011.7
20260509165103 49 314 0.9 1.7 0.01 0.34 0.01 99 1011.7
20260509164804 49 0 0.0 0.0 0.01 0.34 0.01 99 1011.5
20260509164503 49 0 0.0 0.0 0.01 0.34 0.01 99 1011.4
20260509164203 49 0 0.0 0.0 0.01 0.34 0.01 99 1011.6
20260509163604 49 0 0.0 0.0 0.01 0.34 0.01 99 1011.6
20260509163304 49 0 0.0 0.0 0.01 0.34 0.01 99 1011.4
20260509163004 49 0 0.0 0.0 0.01 0.34 0.01 99 1011.4
20260509162704 49 0 0.0 0.0 0.01 0.34 0.01 99 1011.7
20260509162104 49 0 0.0 0.0 0.01 0.34 0.01 99 1011.8
20260509161803 49 0 0.0 0.0 0.01 0.34 0.01 99 1011.8
20260509161504 49 0 0.0 0.0 0.01 0.34 0.01 99 1011.8
20260509161203 49 0 0.0 0.0 0.01 0.34 0.01 99 1011.9
20260509160904 49 0 0.0 0.0 0.01 0.34 0.01 99 1011.9
20260509160604 49 0 0.0 0.0 0.01 0.34 0.01 99 1011.6
20260509160304 49 1 0.0 0.9 0.00 0.33 0.00 99 1011.7
20260509160004 49 1 0.0 0.9 0.00 0.33 0.00 99 1011.7
20260509155704 49 1 0.0 0.9 0.00 0.33 0.00 99 1011.7
20260509155404 49 0 0.0 0.0 0.00 0.33 0.00 99 1011.7
20260509155103 49 0 0.0 0.0 0.00 0.33 0.00 99 1011.6
20260509154504 50 0 0.0 0.0 0.00 0.33 0.00 99 1011.6
20260509154203 50 0 0.0 0.0 0.00 0.33 0.00 99 1011.7
20260509153905 50 0 0.0 0.0 0.00 0.33 0.00 99 1011.5
20260509153604 50 0 0.0 0.0 0.00 0.33 0.00 99 1011.5
20260509153306 50 0 0.0 0.0 0.00 0.33 0.00 99 1011.5
20260509153004 50 0 0.0 0.0 0.00 0.33 0.00 99 1011.6
20260509152405 50 0 0.0 0.0 0.00 0.33 0.00 99 1011.5
20260509152106 50 0 0.0 0.0 0.00 0.33 0.00 99 1011.5
20260509151805 50 0 0.0 0.0 0.00 0.33 0.00 99 1011.5
20260509151504 50 0 0.0 0.0 0.00 0.33 0.00 99 1011.5
20260509151204 50 0 0.0 0.0 0.00 0.33 0.00 99 1011.7
20260509150904 50 0 0.0 0.0 0.00 0.33 0.00 99 1011.8
20260509150603 50 0 0.0 0.0 0.00 0.33 0.00 99 1011.8
20260509150305 50 0 0.0 0.0 0.00 0.33 0.00 99 1011.6
20260509150003 50 0 0.0 0.0 0.00 0.33 0.00 99 1011.8
20260509145704 50 0 0.0 0.0 0.00 0.33 0.00 99 1011.8
20260509145403 50 0 0.0 0.0 0.00 0.33 0.00 99 1012.0
20260509145104 50 0 0.0 0.0 0.00 0.33 0.00 99 1012.1
20260509144504 50 0 0.0 0.0 0.00 0.33 0.00 99 1012.0
20260509144204 50 0 0.0 0.0 0.00 0.33 0.00 99 1012.0
20260509143904 50 0 0.0 0.0 0.00 0.33 0.00 99 1012.0
20260509143304 50 0 0.0 0.0 0.00 0.33 0.00 99 1012.1
20260509143005 50 0 0.0 0.0 0.00 0.33 0.00 99 1012.0
20260509142703 50 0 0.0 0.0 0.00 0.33 0.00 99 1012.1
20260509141803 50 0 0.0 0.0 0.00 0.33 0.00 99 1011.9
20260509141504 51 0 0.0 0.0 0.00 0.33 0.00 99 1012.0
20260509140904 51 0 0.0 0.0 0.00 0.33 0.00 99 1012.2
20260509140604 51 181 0.0 0.9 0.00 0.33 0.00 99 1012.3
20260509140304 51 225 0.0 0.9 0.00 0.33 0.00 99 1012.2
20260509140005 51 225 0.0 0.9 0.00 0.33 0.00 99 1012.2
20260509135705 51 225 0.0 0.9 0.00 0.33 0.00 99 1012.3
20260509135404 51 0 0.0 0.0 0.00 0.33 0.00 99 1012.3
20260509135105 51 0 0.0 0.0 0.00 0.33 0.00 99 1012.3
20260509134805 51 0 0.0 0.0 0.00 0.33 0.00 99 1012.3
20260509134504 51 0 0.0 0.0 0.00 0.33 0.00 99 1012.3
20260509134204 51 0 0.0 0.0 0.00 0.33 0.00 99 1012.3
20260509133904 51 0 0.0 0.0 0.00 0.33 0.00 99 1012.2
20260509133604 51 0 0.0 0.0 0.00 0.33 0.00 99 1012.4
20260509133306 51 0 0.0 0.0 0.00 0.33 0.00 99 1012.5
20260509133004 51 0 0.0 0.0 0.00 0.33 0.00 99 1012.4
20260509132704 51 0 0.0 0.0 0.00 0.33 0.00 99 1012.4
20260509132404 51 0 0.0 0.0 0.00 0.33 0.00 99 1012.5
20260509131804 51 0 0.0 0.0 0.00 0.33 0.00 99 1012.4
20260509131204 51 0 0.0 0.0 0.00 0.33 0.00 99 1012.5
20260509130903 51 0 0.0 0.0 0.00 0.33 0.00 99 1012.6
20260509130604 51 0 0.0 0.0 0.00 0.33 0.00 99 1012.4
20260509130004 51 0 0.0 0.0 0.00 0.33 0.00 99 1012.4
20260509125704 51 0 0.0 0.0 0.00 0.33 0.00 99 1012.5
20260509125104 51 0 0.0 0.0 0.00 0.33 0.00 99 1012.5
20260509124804 51 0 0.0 0.0 0.00 0.33 0.00 99 1012.5
20260509124503 51 0 0.0 0.0 0.00 0.33 0.00 99 1012.5
20260509124204 51 0 0.0 0.0 0.00 0.33 0.00 99 1012.5
20260509123906 51 0 0.0 0.0 0.00 0.33 0.00 99 1012.5
20260509123603 51 0 0.0 0.0 0.00 0.34 0.00 99 1012.5
20260509122403 51 1 0.0 0.9 0.00 0.34 0.00 99 1012.6
20260509122104 51 1 0.0 0.9 0.00 0.34 0.00 99 1012.6
20260509121504 51 0 0.0 0.0 0.00 0.35 0.00 99 1012.5
20260509121204 51 0 0.0 0.0 0.00 0.37 0.00 99 1012.6
20260509120904 51 0 0.0 0.0 0.00 0.37 0.00 99 1012.7
20260509120603 51 0 0.0 0.0 0.00 0.38 0.00 99 1012.6
20260509120304 51 0 0.0 0.0 0.00 0.43 0.00 99 1012.6
20260509120005 51 1 0.0 0.9 0.00 0.48 0.00 99 1012.5
20260509115405 51 11 0.0 1.7 0.00 0.51 0.48 99 1012.6
20260509115104 51 12 0.0 1.7 0.00 0.51 0.48 99 1012.6
20260509114804 51 14 0.0 1.7 0.00 0.52 0.48 99 1012.7
20260509114504 51 314 0.0 0.9 0.00 0.52 0.48 99 1012.6
20260509114204 51 265 0.0 1.7 0.00 0.53 0.48 99 1012.5
20260509113903 51 253 0.0 1.7 0.00 0.54 0.48 99 1012.5
20260509113605 51 262 0.0 1.7 0.00 0.56 0.48 99 1012.5
20260509113304 51 264 0.0 1.7 0.00 0.57 0.48 99 1012.4
20260509113004 51 270 0.9 1.7 0.00 0.57 0.48 99 1012.4
20260509112704 51 278 0.0 0.9 0.00 0.58 0.48 99 1012.4
20260509112104 51 248 0.0 0.9 0.00 0.59 0.48 99 1012.3
20260509111804 51 135 0.0 0.9 0.00 0.60 0.48 99 1012.4
20260509111504 51 135 0.0 0.9 0.00 0.60 0.48 99 1012.2
20260509111204 51 142 0.0 0.9 0.00 0.61 0.48 99 1012.3
20260509110904 51 147 0.0 0.9 0.00 0.63 0.48 99 1012.5
20260509110604 51 163 0.0 0.9 0.00 0.64 0.48 99 1012.3
20260509110304 51 181 0.0 0.9 0.00 0.64 0.48 99 1012.4
20260509110004 51 0 0.0 0.0 0.00 0.65 0.48 99 1012.4
20260509105704 51 0 0.0 0.0 0.00 0.66 0.48 99 1012.4
20260509105403 52 181 0.0 0.9 0.00 0.67 0.48 99 1012.4
20260509104803 52 64 0.0 1.7 0.00 0.70 0.48 98 1012.4
20260509104504 52 50 0.0 1.7 0.00 0.71 0.48 98 1012.5
20260509104203 52 45 0.0 1.7 0.00 0.72 0.48 98 1012.5
20260509103904 53 31 0.0 1.7 0.00 0.73 0.48 98 1012.4
20260509103605 53 6 0.0 0.9 0.00 0.73 0.48 98 1012.5
20260509103304 53 1 0.0 1.7 0.00 0.76 0.48 98 1012.5
20260509103003 53 1 0.0 1.7 0.00 0.76 0.48 98 1012.6
20260509102707 53 1 0.0 1.7 0.00 0.76 0.48 98 1012.7
20260509102404 53 1 0.0 1.7 0.00 0.76 0.48 98 1012.6
20260509102104 53 0 0.0 0.0 0.00 0.77 0.48 98 1012.6
20260509101504 53 135 0.0 0.9 0.00 0.79 0.48 98 1012.6
20260509100904 54 0 0.0 0.0 0.00 0.83 0.48 97 1012.5
20260509100603 54 0 0.0 0.0 0.00 0.83 0.48 97 1012.5
20260509100304 54 0 0.0 0.0 0.00 0.85 0.48 97 1012.6
20260509100005 54 0 0.0 0.0 0.00 0.87 0.48 97 1012.5
20260509095704 54 0 0.0 0.0 0.00 0.90 0.48 97 1012.6
20260509095406 54 0 0.0 0.0 0.00 0.90 0.48 97 1012.5
20260509095105 54 248 0.0 0.9 0.00 0.90 0.48 97 1012.6
20260509094803 54 192 0.0 0.9 0.00 0.90 0.48 97 1012.4
20260509094203 54 154 0.0 1.7 0.00 0.90 0.48 97 1012.4
20260509093604 54 147 0.0 1.7 0.00 0.90 0.48 97 1012.4
20260509093304 54 0 0.0 0.0 0.00 0.90 0.48 97 1012.3
20260509093006 54 0 0.0 0.0 0.00 0.90 0.48 97 1012.3
20260509092704 54 0 0.0 0.0 0.00 0.92 0.48 97 1012.3
20260509092403 54 0 0.0 0.0 0.00 0.93 0.48 97 1012.3
20260509092106 54 0 0.0 0.0 0.00 0.93 0.48 97 1012.2
20260509091804 54 0 0.0 0.0 0.01 0.93 0.48 97 1012.4
20260509091204 54 181 0.0 1.7 0.07 0.93 0.48 97 1012.4
20260509090604 54 181 0.0 1.7 0.07 0.93 0.48 97 1012.2
20260509090005 54 231 0.0 1.7 0.07 0.94 0.48 97 1012.2
20260509085704 54 260 0.0 1.7 0.07 0.94 0.48 97 1012.1
20260509085404 55 274 0.0 2.6 0.07 0.94 0.48 97 1012.3
20260509085103 55 278 0.0 2.6 0.07 0.94 0.48 97 1012.2
20260509084804 55 272 1.7 2.6 0.07 0.96 0.48 97 1012.3
20260509084504 55 272 0.9 3.5 0.07 0.96 0.48 97 1012.1
20260509083903 55 249 0.9 3.5 0.07 0.98 0.48 97 1012.2
20260509083604 55 231 1.7 4.3 0.07 0.99 0.48 97 1012.1
20260509083004 55 186 1.7 4.3 0.07 0.99 0.48 97 1012.2
20260509082703 55 160 1.7 7.8 0.07 0.99 0.48 97 1012.2
20260509081804 55 136 2.6 8.7 0.04 0.97 0.46 97 1012.1
20260509081504 55 140 6.1 8.7 0.00 0.93 0.41 97 1012.1
20260509081206 54 135 3.5 3.5 0.00 0.93 0.41 97 1012.1
20260509080904 54 0 0.0 0.0 0.00 0.93 0.41 97 1012.0
20260509080604 54 0 0.0 0.0 0.00 0.93 0.41 97 1012.1
20260509080304 54 0 0.0 0.0 0.00 0.93 0.41 97 1012.1
20260509080005 54 0 0.0 0.0 0.00 0.93 0.41 97 1012.2
20260509075704 54 0 0.0 0.0 0.00 0.93 0.41 97 1012.1
20260509075404 54 0 0.0 0.0 0.00 0.93 0.41 97 1012.0
20260509075103 54 0 0.0 0.0 0.00 0.93 0.41 97 1012.2
20260509074804 54 0 0.0 0.0 0.00 0.93 0.41 97 1012.1
20260509074504 54 0 0.0 0.0 0.00 0.93 0.41 97 1012.0
20260509074204 54 0 0.0 0.0 0.00 0.93 0.41 97 1012.0
20260509073904 54 0 0.0 0.0 0.00 0.93 0.41 97 1011.8
20260509073304 54 0 0.0 0.0 0.00 0.93 0.41 97 1011.8
20260509072704 54 0 0.0 0.0 0.00 0.93 0.41 97 1011.8
20260509072404 54 0 0.0 0.0 0.00 0.93 0.41 97 1011.8
20260509072103 54 0 0.0 0.0 0.00 0.93 0.41 96 1011.8
20260509071505 54 0 0.0 0.0 0.00 0.93 0.41 96 1011.8
20260509071204 54 0 0.0 0.0 0.00 0.93 0.41 96 1011.9
20260509070903 55 0 0.0 0.0 0.00 0.93 0.41 96 1011.8
20260509070603 54 0 0.0 0.0 0.00 0.93 0.41 96 1011.7
20260509070305 55 0 0.0 0.0 0.00 0.94 0.41 96 1011.7
20260509070003 55 0 0.0 0.0 0.00 0.94 0.41 95 1012.0
20260509065704 55 0 0.0 0.0 0.00 0.94 0.41 95 1011.8
20260509065103 54 0 0.0 0.0 0.00 0.94 0.41 95 1011.7
20260509064505 55 0 0.0 0.0 0.00 0.94 0.41 94 1011.8
20260509064204 55 0 0.0 0.0 0.00 0.94 0.41 94 1011.9
20260509063604 55 0 0.0 0.0 0.00 0.94 0.41 94 1011.6
20260509063303 55 0 0.0 0.0 0.00 0.94 0.41 94 1011.6
20260509063004 55 0 0.0 0.0 0.00 0.94 0.41 94 1011.5
20260509062704 55 0 0.0 0.0 0.00 0.94 0.41 95 1011.4
20260509062403 56 0 0.0 0.0 0.00 0.94 0.41 95 1011.4
20260509062104 56 0 0.0 0.0 0.00 0.94 0.41 94 1011.4
20260509061803 56 0 0.0 0.0 0.00 0.94 0.41 94 1011.3
20260509061505 56 0 0.0 0.0 0.00 0.94 0.41 94 1011.5
20260509061204 56 0 0.0 0.0 0.00 0.94 0.41 94 1011.5
20260509060906 56 0 0.0 0.0 0.00 0.94 0.41 94 1011.3
20260509060303 56 0 0.0 0.0 0.00 0.94 0.41 93 1011.6
20260509060004 56 0 0.0 0.0 0.00 0.94 0.41 93 1011.5
20260509055704 56 0 0.0 0.0 0.00 0.94 0.41 93 1011.5
20260509055106 56 0 0.0 0.0 0.00 0.94 0.41 93 1011.6
20260509054803 57 0 0.0 0.0 0.00 0.94 0.41 93 1011.5
20260509054203 57 178 0.0 1.7 0.00 0.94 0.41 93 1011.5
20260509053904 57 198 0.0 3.5 0.00 0.94 0.41 92 1011.5
20260509053603 58 225 0.0 5.2 0.00 0.94 0.41 92 1011.7
20260509053303 58 244 1.7 5.2 0.00 0.94 0.41 92 1011.7
20260509053004 58 252 2.6 5.2 0.00 0.94 0.41 91 1011.6
20260509052704 58 263 1.7 4.3 0.00 0.94 0.41 91 1011.8
20260509052405 58 266 1.7 6.1 0.00 0.94 0.41 91 1011.7
20260509052103 58 267 1.7 6.1 0.00 0.94 0.41 91 1011.6
20260509051805 58 258 1.7 6.1 0.00 0.94 0.41 91 1011.6
20260509051504 58 243 2.6 4.3 0.00 0.94 0.41 91 1011.6
20260509051204 59 231 0.0 4.3 0.00 0.94 0.41 90 1011.5
20260509050904 59 237 1.7 4.3 0.00 0.94 0.41 90 1011.6
20260509050604 59 231 1.7 1.7 0.00 0.94 0.41 90 1011.6
20260509050003 59 231 0.0 2.6 0.00 0.94 0.41 89 1011.6
20260509045405 59 241 0.9 2.6 0.00 0.94 0.41 89 1011.5
20260509045104 59 250 0.0 3.5 0.00 0.94 0.41 89 1011.6
20260509044204 59 227 1.7 3.5 0.00 0.94 0.41 90 1011.7
20260509043604 59 217 0.9 3.5 0.00 0.94 0.41 89 1011.6
20260509043303 60 243 0.0 2.6 0.00 0.94 0.41 88 1011.7
20260509043004 60 261 0.0 2.6 0.00 0.94 0.41 87 1011.7
20260509042704 60 269 0.9 2.6 0.00 0.94 0.41 87 1011.6
20260509042403 60 282 1.7 2.6 0.00 0.94 0.41 86 1011.6
20260509042103 60 270 0.9 2.6 0.00 0.94 0.41 85 1011.7
20260509041804 61 240 0.0 0.9 0.00 0.94 0.41 84 1011.8
20260509041504 61 264 0.0 0.9 0.00 0.94 0.41 83 1011.7
20260509041204 61 322 0.0 1.7 0.00 0.94 0.41 83 1011.8
20260509040904 61 321 0.0 1.7 0.00 0.94 0.41 83 1011.7
20260509040604 61 313 0.0 1.7 0.00 0.94 0.41 84 1011.7
20260509040004 61 264 0.0 1.7 0.00 0.94 0.41 83 1011.9
20260509035706 61 284 0.9 2.6 0.00 0.94 0.41 81 1011.9
20260509035406 61 271 0.0 3.5 0.00 0.94 0.41 81 1011.9
20260509034804 62 269 0.9 3.5 0.00 0.94 0.41 79 1011.8
20260509034506 62 247 1.7 4.3 0.00 0.94 0.41 79 1011.7
20260509034204 62 230 0.9 4.3 0.00 0.94 0.41 78 1011.6